Content
SEND FEEDBACK

Daily
Averages
Monthly
Summary
Italy

BARI, ITALY


Home > Europe > Italy
Elevation: 144 feet     Latitude: 41 08N     Longitude: 016 47E

WEATHER
 
SELECT A DAY
Number of Records: 294,471;   Date Range: 7/1/96 - 7/11/14
 
SHARE

PRINT THIS DATA

[ ← Previous Day ]
WEATHER ALMANAC - FEBRUARY 4, 2013
[ Next Day → ]
[ °C ]   °F
Weather ElementAverageHighLow
Temperature43.3 °F50 °F (11:50 am)35.6 °F (10:20 pm)
Dewpoint32 °F37.4 °F (12:50 am)23 °F (2:50 pm)
Humidity66.9 %87 % (8:20 pm)35 % (2:50 pm)
Barometer30.05 in30.12 in (7:20 pm)29.95 in (12:50 am)
Wind Speed8.1 mph11.5 mph (12:50 am)
Weather ElementAverage
Visibility6.2 mi
Wind DirectionW (273.2 °)

Weather ElementTotal
Precipitation---
Heating Degree Days22.2 (Base 65)
Averaged from 44 records on February 4, 2013
WEATHER CONDITIONS BREAKOUT
WIND DIRECTION BREAKOUT
WEATHER BY HOUR - FEBRUARY 4, 2013
[ °C ]   °F
Local TimeTemperatureDewpointHumidityBarometerVisibilityWind DirectionWind SpeedGust SpeedPrecipitationEventsConditions
12:50 AM42.8 °F37.4 °F81 %29.95 in6.2 miWNW (290°)11.5 mphPartly Cloudy
1:20 AM42.8 °F35.6 °F76 %29.95 in6.2 miWNW (290°)10.4 mphPartly Cloudy
1:50 AM41.0 °F35.6 °F81 %29.95 in6.2 miWest (280°)10.4 mphPartly Cloudy
2:20 AM42.8 °F35.6 °F76 %29.95 in6.2 miWNW (290°)10.4 mphPartly Cloudy
2:50 AM41.0 °F35.6 °F81 %29.95 in6.2 miWest (280°)10.4 mphPartly Cloudy
3:50 AM41.0 °F35.6 °F81 %29.95 in6.2 miWest (280°)10.4 mphPartly Cloudy
4:20 AM42.8 °F35.6 °F76 %29.95 in6.2 miWNW (290°)10.4 mphPartly Cloudy
4:50 AM41.0 °F35.6 °F81 %29.95 in6.2 miWest (280°)10.4 mphPartly Cloudy
5:20 AM42.8 °F35.6 °F76 %29.95 in6.2 miWNW (290°)10.4 mphPartly Cloudy
5:50 AM41.0 °F35.6 °F81 %29.95 in6.2 miWest (280°)10.4 mphPartly Cloudy
6:20 AM42.8 °F35.6 °F76 %29.95 in6.2 miWNW (290°)10.4 mphPartly Cloudy
6:50 AM39.2 °F32.0 °F75 %29.98 in6.2 miWest (280°)10.4 mphPartly Cloudy
7:20 AM39.2 °F32.0 °F75 %30.04 in6.2 miWest (270°)9.2 mphPartly Cloudy
7:50 AM39.2 °F32.0 °F75 %30.04 inWest (270°)9.2 mphClear
8:20 AM41.0 °F32.0 °F70 %30.06 inWest (270°)10.4 mphClear
8:50 AM42.8 °F32.0 °F66 %30.06 inWest (280°)11.5 mphClear
9:20 AM44.6 °F32.0 °F61 %30.06 inWest (280°)10.4 mphClear
9:50 AM46.4 °F32.0 °F57 %30.06 inWNW (300°)11.5 mphClear
10:20 AM48.2 °F32.0 °F54 %30.09 inNW (310°)10.4 mphClear
11:50 AM50.0 °F30.2 °F47 %30.09 inNW (320°)6.9 mphClear
12:20 PM50.0 °F26.6 °F40 %30.09 inNNW (340°)8.1 mphClear
12:50 PM50.0 °F30.2 °F47 %30.09 inNorth (350°)10.4 mphClear
1:20 PM50.0 °F24.8 °F37 %30.06 inNorth (360°)10.4 mphClear
1:50 PM50.0 °F28.4 °F43 %30.06 inNNW (340°)6.9 mphClear
2:20 PM50.0 °F26.6 °F40 %30.06 inNorth (360°)8.1 mphClear
2:50 PM50.0 °F23.0 °F35 %30.06 inNorth (350°)6.9 mphClear
3:20 PM50.0 °F24.8 °F37 %30.06 inNorth (360°)5.8 mphClear
3:50 PM50.0 °F28.4 °F43 %30.09 inNorth (360°)5.8 mphClear
4:20 PM50.0 °F30.2 °F47 %30.09 inNorth (360°)5.8 mphClear
4:50 PM50.0 °F30.2 °F47 %30.09 inNNW (330°)5.8 mphClear
5:20 PM48.2 °F30.2 °F50 %30.09 inVariable3.5 mphClear
5:50 PM46.4 °F32.0 °F57 %30.09 inNorth (350°)2.3 mphClear
6:20 PM42.8 °F32.0 °F66 %30.09 inVariable2.3 mphClear
6:50 PM42.8 °F32.0 °F66 %30.09 inNW (320°)3.5 mphClear
7:20 PM41.0 °F33.8 °F76 %30.12 inWNW (300°)3.5 mphClear
7:50 PM39.2 °F33.8 °F81 %30.12 inVariable3.5 mphClear
8:20 PM37.4 °F33.8 °F87 %30.12 inWSW (250°)4.6 mphClear
8:50 PM37.4 °F33.8 °F87 %30.12 inSW (220°)6.9 mphClear
9:20 PM37.4 °F32.0 °F81 %30.12 inSW (220°)8.1 mphClear
9:50 PM37.4 °F32.0 °F81 %30.12 inWSW (240°)6.9 mphClear
10:20 PM35.6 °F32.0 °F87 %30.12 inSW (220°)8.1 mphClear
10:50 PM35.6 °F32.0 °F87 %30.12 inSW (230°)6.9 mphClear
11:20 PM35.6 °F32.0 °F87 %30.12 inSW (220°)8.1 mphClear
11:50 PM35.6 °F32.0 °F87 %30.12 inSW (220°)8.1 mphClear
Hourly data recorded from LIBD, located miles away from Bari, Italy







STORIES FROM OUR PARTNERS